Weather History for Pueblo, CO

Change the Weather History Date:

Saturday, February 16, 2013

  Actual Average Record
Temperature  
Mean Temperature 38 °F 34 °F  
Max Temperature 65 °F 51 °F 73 °F (1970)
Min Temperature 10 °F 17 °F -18 °F (1895)
Degree Days  
Heating Degree Days 27 31  
Month to date heating degree days 496 522  
Since 1 July heating degree days 3815 3954  
Cooling Degree Days 0 0  
Month to date cooling degree days 0 0  
Year to date cooling degree days 0 0  
Moisture  
Dew Point 7 °F    
Average Humidity 43    
Maximum Humidity 76    
Minimum Humidity 9    
Precipitation  
Precipitation 0.00 in 0.01 in 0.26 in (1938)
Month to date precipitation 0.15 0.14  
Year to date precipitation 0.36 0.49  
Snow  
Snow 0.00 in 0.10 in 5.10 in (1988)
Month to date snowfall 1.0 2.3  
Since 1 July snowfall 10.4 20.3  
Snow Depth 0.00 in    
Sea Level Pressure  
Sea Level Pressure 30.14 in    
Wind  
Wind Speed 8 mph (WNW)    
Max Wind Speed 31 mph    
Max Gust Speed 38 mph    
Visibility 10 miles    
Events      
T = Trace of Precipitation, MM = Missing Value Source: NWS Daily Summary

Daily Weather History Graph

Daily Weather History Graph

Search for Another Location

Airport:

Trip Planner

Search our weather history database for the weather conditions in past years. The results will help you decide how hot, cold, wet, or windy it might be!

Date:

Astronomy

Feb. 16, 2013 Rise Set
Actual Time 6:46 AM MST 5:37 PM MST
Civil Twilight 6:19 AM MST 6:04 PM MST
Nautical Twilight 5:48 AM MST 6:35 PM MST
Astronomical Twilight 5:18 AM MST 7:06 PM MST
Moon 10:07 AM MST (2/16) No Moon Set
Length of Visible Light 11h 45m
Length of Day
10h 51m
Waxing Crescent, 40% of the Moon is Illuminated
Feb 16
Waxing Crescent
Feb 17
First Quarter
Feb 25
Full
Mar 4
Last Quarter
Mar 11
New

Hourly Weather History & Observations

Time (MST) Temp. Windchill Dew Point Humidity Pressure Visibility Wind Dir Wind Speed Gust Speed Precip Events Conditions
12:53 AM 18.0 °F 12.7 °F 9.0 °F 68% 30.34 in 10.0 mi ENE 3.5 mph - N/A   Clear
1:53 AM 14.0 °F - 6.1 °F 71% 30.33 in 10.0 mi Calm Calm - N/A   Clear
2:53 AM 17.1 °F - 10.0 °F 74% 30.30 in 10.0 mi Calm Calm - N/A   Clear
3:53 AM 12.9 °F 3.8 °F 7.0 °F 77% 30.29 in 10.0 mi North 5.8 mph - N/A   Clear
4:53 AM 15.1 °F 7.7 °F 8.1 °F 74% 30.30 in 10.0 mi West 4.6 mph - N/A   Clear
5:53 AM 12.0 °F - 6.1 °F 77% 30.30 in 10.0 mi Calm Calm - N/A   Clear
6:53 AM 12.0 °F 4.1 °F 6.1 °F 77% 30.31 in 10.0 mi North 4.6 mph - N/A   Clear
7:53 AM 21.9 °F - 12.9 °F 68% 30.27 in 10.0 mi Calm Calm - N/A   Clear
8:53 AM 30.0 °F 26.5 °F 14.0 °F 51% 30.25 in 10.0 mi Variable 3.5 mph - N/A   Clear
9:25 AM 48.2 °F - 10.4 °F 22% 30.14 in 9.0 mi WNW 28.8 mph 36.8 mph N/A   Clear
9:53 AM 51.1 °F - 8.1 °F 18% 30.17 in 10.0 mi West 27.6 mph 34.5 mph N/A   Clear
10:53 AM 55.0 °F - 7.0 °F 15% 30.15 in 10.0 mi West 21.9 mph 32.2 mph N/A   Clear
11:53 AM 57.9 °F - 7.0 °F 13% 30.11 in 10.0 mi West 20.7 mph 26.5 mph N/A   Clear
12:53 PM 61.0 °F - 7.0 °F 12% 30.06 in 10.0 mi WNW 16.1 mph - N/A   Clear
1:53 PM 63.0 °F - 5.0 °F 10% 30.04 in 10.0 mi WNW 10.4 mph - N/A   Clear
2:53 PM 63.0 °F - 5.0 °F 10% 30.01 in 10.0 mi NNW 15.0 mph - N/A   Clear
3:53 PM 63.0 °F - 3.9 °F 10% 30.01 in 10.0 mi NNW 8.1 mph - N/A   Clear
4:53 PM 60.1 °F - 6.1 °F 12% 30.01 in 10.0 mi West 13.8 mph 20.7 mph N/A   Clear
5:53 PM 53.1 °F - 7.0 °F 16% 30.04 in 10.0 mi West 8.1 mph - N/A   Clear
6:53 PM 46.9 °F - 8.1 °F 21% 30.08 in 10.0 mi NNW 8.1 mph - N/A   Clear
7:53 PM 46.0 °F 44.8 °F 7.0 °F 20% 30.06 in 10.0 mi Variable 3.5 mph - N/A   Clear
8:53 PM 44.1 °F 42.5 °F 7.0 °F 22% 30.03 in 10.0 mi Variable 3.5 mph - N/A   Clear
9:53 PM 34.0 °F 27.2 °F 6.1 °F 31% 29.99 in 10.0 mi North 8.1 mph - N/A   Clear
10:53 PM 32.0 °F 26.4 °F 5.0 °F 32% 29.97 in 10.0 mi WSW 5.8 mph - N/A   Clear
11:53 PM 26.1 °F 19.4 °F 3.9 °F 39% 29.97 in 10.0 mi WSW 5.8 mph - N/A   Clear